Location: 81360 Arifat, France
(43.7204°N, 2.3408°E)
Time: 01:55:20
(UTC+01:00)

Vanguard 1 - All Passes

Search period start: 06 December 2025 00:00
Search period end: 16 December 2025 00:00
Orbit: 650 x 3821 km, 34.2° (Epoch: 03 December)

Date Brightness Start Highest point End Pass type
(mag) Time Alt. Az. Time Alt. Az. Time Alt. Az.
06 Dec - 10:52:43 10° S 10:57:52 21° SE 11:05:19 10° E daylight
06 Dec - 13:09:04 10° SW 13:17:23 50° SSE 13:32:29 10° E daylight
06 Dec - 15:28:05 10° W 15:39:32 56° S 15:59:16 10° ESE daylight
06 Dec - 17:49:04 10° W 18:03:13 40° SSW 18:23:07 10° SSE visible
06 Dec - 20:15:35 10° WSW 20:26:34 17° SW 20:38:48 10° SSW visible
07 Dec - 11:10:53 10° SSW 11:16:38 27° SE 11:25:34 10° E daylight
07 Dec - 13:28:05 10° WSW 13:36:37 53° S 13:52:17 10° E daylight
07 Dec - 15:47:24 10° W 15:59:01 52° SSW 16:18:38 10° SE daylight
07 Dec - 18:08:54 10° W 18:22:36 34° SSW 18:41:14 10° SSE visible
07 Dec - 20:40:04 10° WSW 20:45:41 12° SW 20:51:36 10° SSW visible
08 Dec - 11:29:23 10° SSW 11:35:30 33° SSE 11:45:33 10° E daylight
08 Dec - 13:47:11 10° WSW 13:55:56 54° S 14:12:01 10° ESE daylight
08 Dec - 16:06:46 10° W 16:18:30 48° SSW 16:37:48 10° SE daylight
08 Dec - 18:29:02 10° W 18:41:58 27° SW 18:58:51 10° SSE visible
09 Dec - 09:35:09 10° SE 09:35:59 10° SE 09:36:52 10° SE daylight
09 Dec - 11:48:07 10° SW 11:54:29 39° SSE 12:05:24 10° E daylight
09 Dec - 14:06:20 10° WSW 14:15:18 54° S 14:31:41 10° ESE daylight
09 Dec - 16:26:12 10° W 16:37:58 42° SSW 16:56:41 10° SE daylight
09 Dec - 18:49:44 10° W 19:01:17 22° SW 19:15:42 10° S visible
10 Dec - 09:51:16 10° S 09:54:40 15° SE 09:58:58 10° ESE daylight
10 Dec - 12:06:59 10° SW 12:13:35 44° SSE 12:25:11 10° E daylight
10 Dec - 14:25:32 10° WSW 14:34:41 52° S 14:51:13 10° ESE daylight
10 Dec - 16:45:48 10° W 16:57:25 36° SSW 17:15:13 10° SSE daylight
10 Dec - 19:11:28 10° WSW 19:20:35 16° SW 19:31:18 10° SSW visible
11 Dec - 10:09:11 10° SSW 10:13:26 21° SE 10:19:21 10° E daylight
11 Dec - 12:25:58 10° WSW 12:32:45 47° SSE 12:44:54 10° ESE daylight
11 Dec - 14:44:48 10° W 14:54:06 48° S 15:10:34 10° SE daylight
11 Dec - 17:05:37 10° W 17:16:51 30° SSW 17:33:20 10° SSE daylight
11 Dec - 19:37:32 10° SW 19:39:53 10° SW 19:42:19 10° SW visible
12 Dec - 10:27:34 10° SSW 10:32:18 27° SSE 10:39:20 10° E daylight
12 Dec - 12:45:01 10° WSW 12:52:00 48° S 13:04:33 10° ESE daylight
12 Dec - 15:04:07 10° W 15:13:31 43° SSW 15:29:43 10° SE daylight
12 Dec - 17:25:46 10° WSW 17:36:17 25° SSW 17:50:53 10° SSE visible
13 Dec - 10:46:14 10° SW 10:51:15 32° SSE 10:59:07 10° E daylight
13 Dec - 13:04:09 10° WSW 13:11:17 48° S 13:24:08 10° ESE daylight
13 Dec - 15:23:33 10° W 15:32:57 38° SSW 15:48:35 10° SE daylight
13 Dec - 17:46:31 10° WSW 17:55:41 19° SW 18:07:36 10° S visible
14 Dec - 08:50:22 10° SSE 08:51:40 11° SE 08:53:03 10° SE daylight
14 Dec - 11:05:03 10° SW 11:10:19 37° SSE 11:18:48 10° E daylight
14 Dec - 13:23:20 10° WSW 13:30:36 46° S 13:43:35 10° ESE daylight
14 Dec - 15:43:09 10° W 15:52:23 32° SSW 16:07:06 10° SSE daylight
14 Dec - 18:08:41 10° WSW 18:15:06 13° SW 18:22:39 10° SSW visible
15 Dec - 09:07:31 10° S 09:10:30 16° SSE 09:14:04 10° ESE daylight
15 Dec - 11:24:01 10° WSW 11:29:26 40° SSE 11:38:25 10° ESE daylight
15 Dec - 13:42:34 10° WSW 13:49:56 42° S 14:02:53 10° SE daylight
15 Dec - 16:02:58 10° WSW 16:11:50 26° SSW 16:25:08 10° SSE daylight
